LAN162 SCEL-SCDA

Flight info

Callsign LAN162
Flight time N/A
Altitude 36000
Route DONTI5B DONTI UQ802 GAXIR GAXIR4C
Aircraft A321/M-SDE3FGHIRWY/LB1

Departure

Time N/A
Airport Comodoro Arturo Merino Benítez International Airport (SCEL)

Arrival

Time 2026-04-30 20:11
Airport Diego Aracena International Airport (SCDA)
Time Latitude Longitude Altitude Speed Heading
2026-04-30 18:20 -32.73472 -71.19428 23044 ft 421 kts 355°
2026-04-30 18:20 -32.70533 -71.19479 23407 ft 424 kts 355°
2026-04-30 18:21 -32.67571 -71.19529 23767 ft 427 kts 355°
2026-04-30 18:21 -32.64595 -71.19578 24135 ft 429 kts 355°
2026-04-30 18:21 -32.61606 -71.19628 24476 ft 431 kts 355°
2026-04-30 18:21 -32.58603 -71.19684 24831 ft 432 kts 355°
2026-04-30 18:22 -32.55582 -71.19745 25172 ft 435 kts 355°
2026-04-30 18:22 -32.49512 -71.19862 25862 ft 438 kts 355°
2026-04-30 18:22 -32.46461 -71.19919 26199 ft 440 kts 355°
2026-04-30 18:23 -32.43392 -71.19974 26507 ft 442 kts 355°
2026-04-30 18:23 -32.40318 -71.20027 26826 ft 443 kts 355°
2026-04-30 18:23 -32.37231 -71.20077 27133 ft 444 kts 355°
2026-04-30 18:23 -32.34130 -71.20127 27418 ft 446 kts 355°
2026-04-30 18:24 -32.27900 -71.20238 27974 ft 449 kts 355°
2026-04-30 18:24 -32.24772 -71.20299 28282 ft 451 kts 355°
2026-04-30 18:24 -32.21628 -71.20361 28561 ft 452 kts 355°
2026-04-30 18:25 -32.18479 -71.20422 28844 ft 453 kts 355°
2026-04-30 18:25 -32.12176 -71.20536 29503 ft 452 kts 355°
2026-04-30 18:25 -32.09031 -71.20590 29867 ft 451 kts 355°
2026-04-30 18:26 -32.02776 -71.20696 30583 ft 448 kts 355°
2026-04-30 18:26 -31.99662 -71.20749 30913 ft 447 kts 355°
2026-04-30 18:26 -31.96557 -71.20803 31217 ft 446 kts 355°
2026-04-30 18:27 -31.90386 -71.20916 31798 ft 446 kts 355°
2026-04-30 18:27 -31.87287 -71.20972 32120 ft 445 kts 355°
2026-04-30 18:28 -31.81099 -71.21080 32743 ft 444 kts 355°
2026-04-30 18:28 -31.78015 -71.21132 33051 ft 443 kts 356°
2026-04-30 18:28 -31.71851 -71.20941 33649 ft 444 kts 359°
2026-04-30 18:29 -31.68771 -71.20730 33925 ft 443 kts 359°
2026-04-30 18:29 -31.59560 -71.20149 34748 ft 441 kts 359°
2026-04-30 18:30 -31.53440 -71.19773 35204 ft 440 kts 359°
2026-04-30 18:30 -31.47327 -71.19386 35729 ft 439 kts 358°
2026-04-30 18:31 -31.38197 -71.18810 35793 ft 436 kts 358°
2026-04-30 18:32 -31.29110 -71.18250 35793 ft 436 kts 358°
2026-04-30 18:33 -31.20021 -71.17688 35794 ft 436 kts 358°
2026-04-30 18:33 -31.10939 -71.17116 35796 ft 436 kts 358°
2026-04-30 18:34 -31.01841 -71.16553 35799 ft 436 kts 358°
2026-04-30 18:35 -30.95779 -71.16176 35808 ft 436 kts 358°
2026-04-30 18:35 -30.89752 -71.15804 35811 ft 436 kts 358°
2026-04-30 18:36 -30.80653 -71.15251 35814 ft 437 kts 358°
2026-04-30 18:37 -30.71550 -71.14703 35812 ft 437 kts 358°
2026-04-30 18:37 -30.65480 -71.14345 35813 ft 437 kts 358°
2026-04-30 18:38 -30.59406 -71.13984 35815 ft 437 kts 358°
2026-04-30 18:38 -30.53339 -71.13620 35815 ft 437 kts 358°
2026-04-30 18:39 -30.47269 -71.13256 35811 ft 437 kts 358°
2026-04-30 18:39 -30.41200 -71.12891 35813 ft 437 kts 358°
2026-04-30 18:40 -30.35128 -71.12538 35815 ft 437 kts 358°
2026-04-30 18:40 -30.29059 -71.12191 35815 ft 437 kts 358°
2026-04-30 18:41 -30.22996 -71.11824 35813 ft 437 kts 359°
2026-04-30 18:41 -30.16931 -71.11224 35813 ft 439 kts
2026-04-30 18:42 -30.10857 -71.10487 35814 ft 439 kts
2026-04-30 18:42 -30.01744 -71.09467 35818 ft 438 kts 360°
2026-04-30 18:45 -29.68262 -71.05895 35823 ft 440 kts 360°
2026-04-30 18:46 -29.62210 -71.05246 35826 ft 440 kts 360°
2026-04-30 18:46 -29.56111 -71.04593 35824 ft 440 kts 360°
2026-04-30 18:47 -29.50016 -71.03950 35825 ft 440 kts 360°
2026-04-30 18:47 -29.43921 -71.03291 35827 ft 440 kts
2026-04-30 18:48 -29.37832 -71.02404 35824 ft 442 kts
2026-04-30 18:48 -29.31750 -71.01375 35819 ft 442 kts
2026-04-30 18:49 -29.25659 -71.00399 35817 ft 441 kts
2026-04-30 18:49 -29.19569 -70.99748 35815 ft 439 kts 359°
2026-04-30 18:50 -29.13483 -70.99273 35815 ft 438 kts 358°
2026-04-30 18:50 -29.07395 -70.98769 35812 ft 439 kts 359°
2026-04-30 18:51 -29.01308 -70.98212 35810 ft 439 kts 359°
2026-04-30 18:51 -28.95216 -70.97625 35807 ft 439 kts 359°
2026-04-30 18:52 -28.89120 -70.97031 35812 ft 440 kts 359°
2026-04-30 18:52 -28.83025 -70.96458 35810 ft 439 kts 359°
2026-04-30 18:53 -28.76924 -70.95895 35812 ft 440 kts 359°
2026-04-30 18:53 -28.70868 -70.95333 35806 ft 440 kts 359°
2026-04-30 18:54 -28.64771 -70.94764 35808 ft 440 kts 359°
2026-04-30 18:54 -28.58670 -70.94189 35821 ft 440 kts 359°
2026-04-30 18:55 -28.52564 -70.93623 35824 ft 440 kts 359°
2026-04-30 18:55 -28.43414 -70.92734 35824 ft 441 kts 359°
2026-04-30 18:56 -28.34246 -70.91761 35827 ft 441 kts 359°
2026-04-30 18:57 -28.25072 -70.90797 35831 ft 441 kts 359°
2026-04-30 18:57 -28.18958 -70.90152 35828 ft 441 kts 360°
2026-04-30 18:58 -28.09790 -70.89166 35824 ft 441 kts 360°
2026-04-30 18:59 -28.00614 -70.88189 35834 ft 442 kts 359°
2026-04-30 19:00 -27.88384 -70.86908 35853 ft 441 kts 359°
2026-04-30 19:01 -27.76154 -70.85601 35869 ft 441 kts 359°
2026-04-30 19:02 -27.66988 -70.84639 35864 ft 441 kts 359°
2026-04-30 19:03 -27.54805 -70.83355 35873 ft 441 kts 359°
2026-04-30 19:04 -27.42591 -70.82062 35869 ft 441 kts 359°
2026-04-30 19:05 -27.30639 -70.80803 35865 ft 440 kts 359°
2026-04-30 19:06 -27.19470 -70.79630 35858 ft 440 kts 359°
2026-04-30 19:06 -27.10319 -70.78678 35869 ft 440 kts 359°
2026-04-30 19:07 -27.01172 -70.77728 35860 ft 440 kts 359°
2026-04-30 19:08 -26.88974 -70.76460 35888 ft 440 kts 359°
2026-04-30 19:09 -26.79826 -70.75502 35903 ft 440 kts 359°
2026-04-30 19:09 -26.73734 -70.74867 35908 ft 439 kts 359°
2026-04-30 19:10 -26.61515 -70.73249 34961 ft 437 kts
2026-04-30 19:11 -26.52469 -70.71668 35294 ft 440 kts
2026-04-30 19:11 -26.49437 -70.71164 35545 ft 440 kts
2026-04-30 19:12 -26.46416 -70.70662 35785 ft 440 kts
2026-04-30 19:12 -26.40347 -70.69822 35898 ft 437 kts 358°
2026-04-30 19:13 -26.28247 -70.68910 35897 ft 435 kts 357°
2026-04-30 19:14 -26.22205 -70.68416 35904 ft 436 kts 357°
2026-04-30 19:14 -26.16198 -70.67880 35903 ft 436 kts 358°
2026-04-30 19:15 -26.10155 -70.67338 35903 ft 436 kts 358°
2026-04-30 19:15 -26.01091 -70.66530 35901 ft 435 kts 357°
2026-04-30 19:16 -25.95056 -70.66001 35901 ft 435 kts 357°
2026-04-30 19:17 -25.86000 -70.65207 35894 ft 435 kts 357°
2026-04-30 19:17 -25.76945 -70.64419 35898 ft 435 kts 357°
2026-04-30 19:18 -25.67905 -70.63636 35897 ft 434 kts 357°
2026-04-30 19:19 -25.61888 -70.63118 35898 ft 434 kts 357°
2026-04-30 19:19 -25.52860 -70.62322 35899 ft 434 kts 357°
2026-04-30 19:20 -25.46846 -70.61790 35895 ft 433 kts 357°
2026-04-30 19:21 -25.37823 -70.61013 35894 ft 433 kts 357°
2026-04-30 19:22 -25.25796 -70.59990 35893 ft 434 kts 357°
2026-04-30 19:23 -25.07761 -70.58431 35899 ft 434 kts 357°
2026-04-30 19:24 -24.98720 -70.57658 35904 ft 434 kts 357°
2026-04-30 19:25 -24.83663 -70.56368 35942 ft 435 kts 357°
2026-04-30 19:26 -24.71656 -70.55946 35963 ft 429 kts 351°
2026-04-30 19:27 -24.62710 -70.56171 35968 ft 429 kts 352°
2026-04-30 19:28 -24.53751 -70.56244 35969 ft 429 kts 352°
2026-04-30 19:29 -24.41811 -70.56293 35962 ft 429 kts 352°
2026-04-30 19:30 -24.29878 -70.56366 35962 ft 429 kts 352°
2026-04-30 19:31 -24.17938 -70.56437 35965 ft 429 kts 352°
2026-04-30 19:31 -24.08989 -70.56489 35969 ft 428 kts 352°
2026-04-30 19:32 -24.03027 -70.56527 35968 ft 428 kts 352°
2026-04-30 19:32 -23.97074 -70.56566 35968 ft 428 kts 352°
2026-04-30 19:33 -23.91123 -70.56602 35970 ft 427 kts 352°
2026-04-30 19:33 -23.85226 -70.56635 35963 ft 427 kts 352°
2026-04-30 19:34 -23.79295 -70.56673 35959 ft 426 kts 352°
2026-04-30 19:35 -23.70384 -70.56652 35957 ft 427 kts 353°
2026-04-30 19:35 -23.64438 -70.56610 35952 ft 427 kts 353°
2026-04-30 19:36 -23.58495 -70.56578 35952 ft 427 kts 353°
2026-04-30 19:36 -23.49567 -70.56543 35950 ft 428 kts 353°
2026-04-30 19:37 -23.43604 -70.56520 35954 ft 429 kts 353°
2026-04-30 19:37 -23.37643 -70.56493 35956 ft 428 kts 353°
2026-04-30 19:38 -23.31683 -70.56462 35955 ft 428 kts 353°
2026-04-30 19:38 -23.25733 -70.56434 35951 ft 427 kts 353°
2026-04-30 19:39 -23.19782 -70.56411 35954 ft 427 kts 353°
2026-04-30 19:39 -23.13837 -70.56384 35956 ft 427 kts 353°
2026-04-30 19:40 -23.07887 -70.56362 35953 ft 427 kts 353°
2026-04-30 19:40 -23.01944 -70.56341 35953 ft 427 kts 353°
2026-04-30 19:41 -22.96005 -70.56314 35953 ft 427 kts 353°
2026-04-30 19:41 -22.90059 -70.56284 35953 ft 427 kts 353°
2026-04-30 19:42 -22.84117 -70.56221 35954 ft 427 kts 354°
2026-04-30 19:42 -22.78180 -70.56094 35952 ft 426 kts 354°
2026-04-30 19:43 -22.72291 -70.55969 35949 ft 426 kts 354°
2026-04-30 19:44 -22.63408 -70.55796 35946 ft 425 kts 354°
2026-04-30 19:44 -22.57486 -70.55688 35951 ft 426 kts 354°
2026-04-30 19:45 -22.51577 -70.55580 35953 ft 424 kts 354°
2026-04-30 19:45 -22.45671 -70.55469 35952 ft 424 kts 354°
2026-04-30 19:46 -22.39767 -70.55354 35952 ft 424 kts 354°
2026-04-30 19:46 -22.33864 -70.55239 35951 ft 424 kts 354°
2026-04-30 19:47 -22.27976 -70.55126 35948 ft 423 kts 354°
2026-04-30 19:47 -22.22094 -70.55014 35944 ft 423 kts 354°
2026-04-30 19:48 -22.16210 -70.54902 35942 ft 423 kts 354°
2026-04-30 19:48 -22.10326 -70.54784 35943 ft 423 kts 354°
2026-04-30 19:49 -22.04442 -70.54674 35943 ft 423 kts 354°
2026-04-30 19:49 -21.95608 -70.54507 35948 ft 423 kts 354°
2026-04-30 19:50 -21.89722 -70.54373 35949 ft 425 kts 357°
2026-04-30 19:50 -21.86768 -70.53966 35746 ft 430 kts
2026-04-30 19:50 -21.83804 -70.53411 34997 ft 434 kts
2026-04-30 19:51 -21.80864 -70.52856 34202 ft 437 kts
2026-04-30 19:51 -21.77844 -70.52285 33249 ft 444 kts
2026-04-30 19:51 -21.75782 -70.51895 32599 ft 448 kts
2026-04-30 19:51 -21.71680 -70.51122 31273 ft 456 kts
2026-04-30 19:52 -21.68545 -70.50537 30347 ft 459 kts
2026-04-30 19:52 -21.65376 -70.49948 29295 ft 465 kts
2026-04-30 19:52 -21.62208 -70.49358 28748 ft 459 kts
2026-04-30 19:52 -21.59081 -70.48770 28075 ft 456 kts
2026-04-30 19:53 -21.55961 -70.48180 27406 ft 453 kts
2026-04-30 19:53 -21.52869 -70.47596 26763 ft 449 kts
2026-04-30 19:53 -21.50795 -70.47208 26331 ft 447 kts
2026-04-30 19:53 -21.47746 -70.46642 25700 ft 443 kts
2026-04-30 19:54 -21.44722 -70.46083 25078 ft 439 kts
2026-04-30 19:54 -21.41727 -70.45528 24459 ft 435 kts
2026-04-30 19:54 -21.38758 -70.44977 23859 ft 431 kts
2026-04-30 19:54 -21.35814 -70.44428 23262 ft 427 kts
2026-04-30 19:55 -21.32905 -70.43885 22709 ft 422 kts
2026-04-30 19:55 -21.30031 -70.43352 22179 ft 416 kts
2026-04-30 19:55 -21.27234 -70.42836 21673 ft 411 kts
2026-04-30 19:55 -21.24439 -70.42320 21191 ft 404 kts
2026-04-30 19:56 -21.21687 -70.41814 20717 ft 398 kts
2026-04-30 19:56 -21.18978 -70.41311 20252 ft 392 kts
2026-04-30 19:56 -21.16275 -70.40806 19790 ft 387 kts
2026-04-30 19:56 -21.14017 -70.40384 19400 ft 382 kts
2026-04-30 19:57 -21.11416 -70.39900 18946 ft 377 kts
2026-04-30 19:57 -21.08847 -70.39423 18502 ft 373 kts
2026-04-30 19:57 -21.06307 -70.38953 18042 ft 369 kts
2026-04-30 19:57 -21.03789 -70.38486 17589 ft 365 kts
2026-04-30 19:58 -21.01300 -70.38024 17124 ft 362 kts
2026-04-30 19:58 -20.98832 -70.37569 16668 ft 359 kts
2026-04-30 19:58 -20.96383 -70.37118 16201 ft 356 kts
2026-04-30 19:58 -20.93951 -70.36671 15738 ft 353 kts
2026-04-30 19:59 -20.91534 -70.36224 15271 ft 351 kts
2026-04-30 19:59 -20.89136 -70.35782 14806 ft 349 kts
2026-04-30 19:59 -20.84377 -70.35001 13877 ft 343 kts
2026-04-30 20:00 -20.82003 -70.35000 13409 ft 340 kts 357°
2026-04-30 20:00 -20.79639 -70.35020 12947 ft 339 kts 357°
2026-04-30 20:00 -20.77284 -70.35038 12479 ft 338 kts 358°
2026-04-30 20:00 -20.74937 -70.35054 11990 ft 337 kts 358°
2026-04-30 20:01 -20.70262 -70.35085 11024 ft 335 kts 358°
2026-04-30 20:01 -20.67937 -70.35102 10566 ft 333 kts 358°
2026-04-30 20:01 -20.65662 -70.35119 10430 ft 321 kts 358°
2026-04-30 20:02 -20.61351 -70.35057 10125 ft 301 kts
2026-04-30 20:02 -20.59309 -70.34620 10069 ft 299 kts 10°
2026-04-30 20:03 -20.55236 -70.33688 9801 ft 301 kts 10°
2026-04-30 20:03 -20.53185 -70.33222 9356 ft 301 kts 10°
2026-04-30 20:03 -20.51137 -70.32754 8906 ft 301 kts 10°
2026-04-30 20:03 -20.49119 -70.32292 8543 ft 298 kts 10°
2026-04-30 20:04 -20.47098 -70.31829 8143 ft 297 kts 10°
2026-04-30 20:04 -20.45092 -70.31368 7678 ft 292 kts 10°
2026-04-30 20:04 -20.43130 -70.30918 7134 ft 284 kts 10°
2026-04-30 20:05 -20.39478 -70.30078 6437 ft 255 kts 10°
2026-04-30 20:05 -20.37777 -70.29687 6088 ft 250 kts 11°
2026-04-30 20:05 -20.34928 -70.27754 5356 ft 247 kts 53°
2026-04-30 20:06 -20.34210 -70.26107 4973 ft 246 kts 75°
2026-04-30 20:06 -20.33859 -70.24341 4650 ft 241 kts 77°
2026-04-30 20:06 -20.33573 -70.22597 4325 ft 238 kts 89°
2026-04-30 20:06 -20.34015 -70.20939 3970 ft 234 kts 126°
2026-04-30 20:07 -20.35240 -70.19876 3624 ft 228 kts 161°
2026-04-30 20:07 -20.36763 -70.19483 3293 ft 224 kts 170°
2026-04-30 20:07 -20.39806 -70.18800 2639 ft 221 kts 170°
2026-04-30 20:08 -20.41295 -70.18461 2353 ft 216 kts 170°
2026-04-30 20:08 -20.42724 -70.18136 2057 ft 202 kts 171°
2026-04-30 20:08 -20.44049 -70.17832 1789 ft 185 kts 171°
2026-04-30 20:08 -20.45264 -70.17671 1528 ft 169 kts 185°
2026-04-30 20:09 -20.46413 -70.17743 1299 ft 163 kts 186°
2026-04-30 20:09 -20.47520 -70.17803 1077 ft 156 kts 186°
2026-04-30 20:09 -20.49651 -70.17915 657 ft 152 kts 186°
2026-04-30 20:10 -20.51739 -70.18029 279 ft 149 kts 185°
2026-04-30 20:10 -20.52752 -70.18082 178 ft 138 kts 185°
2026-04-30 20:10 -20.53588 -70.18131 174 ft 97 kts 184°
2026-04-30 20:11 -20.54341 -70.18157 176 ft 28 kts 165°
2026-04-30 20:11 -20.54451 -70.18097 176 ft 13 kts 150°
2026-04-30 20:11 -20.54509 -70.18058 175 ft 9 kts 149°
2026-04-30 20:12 -20.54594 -70.18011 175 ft 9 kts 173°
2026-04-30 20:12 -20.54664 -70.18012 175 ft 9 kts 182°
2026-04-30 20:12 -20.54707 -70.18006 175 ft 2 kts 126°
2026-04-30 20:13 -20.54712 -70.17991 175 ft 1 kts 109°
2026-04-30 20:13 -20.54715 -70.17974 175 ft 4 kts 96°
2026-04-30 20:13 -20.54716 -70.17952 174 ft 1 kts 92°
2026-04-30 20:13 -20.54716 -70.17948 174 ft 1 kts 92°
2026-04-30 20:14 -20.54716 -70.17933 174 ft 1 kts 93°
2026-04-30 20:14 -20.54717 -70.17925 174 ft 1 kts 93°
2026-04-30 20:14 -20.54717 -70.17921 174 ft 1 kts 93°
2026-04-30 20:14 -20.54717 -70.17919 174 ft 0 kts 93°